Location: Montbazon
(47.2835°N, 0.6999°E)
Time: 16:58:16
(UTC+00:00)

Timation 2 Rocket - Pass Details

Date: 08 November 2025
Orbit: 904 x 1074 km, 70.0° (Epoch: 09 December)

Event Time Altitude Azimuth Distance (km) Brightness Sun altitude
Exits shadow 04:14:47 18° 338° (NNW) 2,334 5.8 -26.7°
Maximum altitude 04:19:56 64° 57° (ENE) 1,121 4.4 -25.8°
Drops below altitude 10° 04:26:18 10° 139° (SE) 2,735 6.8 -24.7°
Sets 04:28:49 0° 142° (SE) 3,654 7.5 -24.3°
